Location: Unspecified
(50.7693°N, 0.0000°E)
Time: 16:37:29
(UTC+00:00)

A-11 Canister half - Pass Details

Date: 22 June 2019
Orbit: 1526 x 1683 km, 47.3° (Epoch: 21 August)

Event Time Altitude Azimuth Distance (km) Brightness Sun altitude
Rises 04:48:12 0° 227° (SW) 4,742 10.9 7.2°
Reaches altitude 10° 04:51:25 10° 222° (SW) 3,741 10.5 7.6°
Maximum altitude 05:00:19 49° 152° (SSE) 1,900 9.7 8.9°
Drops below altitude 10° 05:09:06 10° 81° (E) 3,697 13.0 10.1°
Sets 05:12:15 0° 76° (ENE) 4,683 13.5 10.6°
